Flag for Poland Weather past 2 weeks in Białystok, Poland

Now
72 °F

Partly sunny.


Feels Like: 77 °F
Forecast: 54 / 74 °F
Wind: 3 mph from Northwest

Location: Bialystok

Current Time: Jun 30, 2015 at 1:10:22 PM

Latest Report: Jun 30, 2015 at 12:00 PM


Visibility: 19 mi

Pressure: 30.12 "Hg

Humidity: 48%

Dew point: 51 °F

Location of BiałystokLocation

Historic Weather in Białystok — Graph

°F

Białystok temperature yesterday

Maximum temperature yesterday: 73 °F (at 4:00 PM)
Minimum temperature yesterday: 49 °F (at 4:00 AM)
Average temperature yesterday: 63 °F

Past Weeks' High & Low Weather Summary

 TemperatureHumidityPressure
High75 °F (Jun 28, 5:00 PM)100% (Jun 22, 5:00 AM)30.18 "Hg (Jun 22, 5:00 AM)
Low41 °F (Jun 22, 4:00 AM)31% (Jun 16, 3:00 PM)29.75 "Hg (Jun 23, 6:00 AM)
Average59 °F70%29.98 "Hg
* Reported Jun 15 11:00 AM — Jun 30 11:00 AM, Białystok, Weather by CustomWeather, © 2015

Note: Actual official high and low records may vary slightly from our data, if they occured in-between our weather recording intervals... More about our weather records

Advertising

Białystok weather history for previous 24 hours

 ConditionsComfort  
Time TempWeatherWind HumidityBarometerVisibility
11:00 AM
Tue, Jun 30
69 °FScattered clouds.3 mph54%30.12 "Hg19 mi
10:00 AM68 °FScattered clouds.3 mph61%30.13 "Hg19 mi
9:00 AM65 °FScattered clouds.2 mph67%30.14 "Hg19 mi
8:00 AM61 °FPartly sunny.1 mph75%30.14 "Hg19 mi
7:00 AM60 °FPartly sunny.1 mph77%30.14 "Hg19 mi
6:00 AM58 °FOvercast.2 mph82%30.13 "Hg19 mi
5:00 AM58 °FOvercast.2 mph79%30.13 "Hg28 mi
4:00 AM59 °FOvercast.2 mph81%30.13 "Hg31 mi
3:00 AM59 °FOvercast.2 mph81%30.12 "Hg12 mi
2:00 AM60 °FLight rain. Overcast.2 mph80%30.12 "Hg14 mi
1:00 AM61 °FOvercast.2 mph78%30.12 "Hg31 mi
12:00 AM61 °FOvercast.2 mph84%30.11 "Hg25 mi
10:00 PM
Mon, Jun 29
63 °FOvercast.2 mph77%30.11 "Hg31 mi
9:00 PM63 °FOvercast.2 mph74%30.11 "Hg31 mi
8:00 PM65 °FPartly sunny.3 mph66%30.09 "Hg28 mi
7:00 PM68 °FOvercast.3 mph61%30.07 "Hg28 mi
6:00 PM70 °FOvercast.3 mph59%30.06 "Hg25 mi
5:00 PM72 °FPartly sunny.3 mph49%30.05 "Hg22 mi
4:00 PM73 °FPartly sunny.2 mph49%30.06 "Hg19 mi
3:00 PM72 °FPartly sunny.3 mph50%30.06 "Hg22 mi
2:00 PM71 °FOvercast.3 mph50%30.07 "Hg19 mi
1:00 PM70 °FOvercast.2 mph52%30.08 "Hg22 mi
Weather by CustomWeather, © 2015

See weather overviewHow to use our weather pages